Location: Veytaux
(46.4185°N, 6.9320°E)
Time: 07:41:09
(UTC+00:00)

Cosmos 1624 Rocket - Pass Details

Date: 27 May 2022
Orbit: 757 x 782 km, 74.0° (Epoch: 01 July)

Event Time Altitude Azimuth Distance (km) Brightness Sun altitude
Exits shadow 02:46:19 - 189° (S) 2,784 6.4 -9.0°
Reaches altitude 10° 02:47:31 10° 187° (S) 2,328 6.0 -8.9°
Maximum altitude 02:52:44 64° 108° (ESE) 863 4.4 -8.2°
Drops below altitude 10° 02:57:58 10° 27° (NNE) 2,332 7.8 -7.5°
Sets 03:00:22 0° 25° (NNE) 3,260 8.7 -7.2°
